TimeCDT,TemperatureF,Dew PointF,Humidity,Sea Level PressureIn,VisibilityMPH,Wind Direction,Wind SpeedMPH,Gust SpeedMPH,PrecipitationIn,Events,Conditions,WindDirDegrees,DateUTC
12:56 AM,50.0,46.0,86,29.47,-9999.0,NE,9.2,-,N/A,,Unknown,50,2012-10-19 05:56:00
1:56 AM,48.0,45.0,89,29.49,-9999.0,ENE,12.7,20.7,0.01,,Unknown,60,2012-10-19 06:56:00
2:56 AM,48.0,44.1,86,29.52,-9999.0,ENE,10.4,-,N/A,,Unknown,70,2012-10-19 07:56:00
3:56 AM,48.0,44.1,86,29.55,-9999.0,NE,8.1,-,N/A,,Unknown,50,2012-10-19 08:56:00
4:56 AM,48.0,44.1,86,29.57,-9999.0,ENE,9.2,-,N/A,,Unknown,60,2012-10-19 09:56:00
5:56 AM,48.0,44.1,86,29.59,-9999.0,NE,6.9,-,N/A,,Unknown,50,2012-10-19 10:56:00
6:56 AM,48.0,43.0,83,29.60,-9999.0,ENE,8.1,-,N/A,,Unknown,60,2012-10-19 11:56:00
7:56 AM,46.9,42.1,83,29.62,-9999.0,ENE,8.1,-,N/A,,Unknown,60,2012-10-19 12:56:00
8:56 AM,48.9,43.0,80,29.64,-9999.0,ENE,9.2,-,N/A,,Unknown,60,2012-10-19 13:56:00
9:56 AM,48.0,41.0,77,29.65,-9999.0,ENE,8.1,-,N/A,,Unknown,70,2012-10-19 14:56:00
10:56 AM,50.0,43.0,77,29.66,-9999.0,ENE,6.9,-,N/A,,Unknown,60,2012-10-19 15:56:00
11:56 AM,48.0,43.0,83,29.67,-9999.0,ENE,6.9,-,N/A,,Unknown,60,2012-10-19 16:56:00
12:56 PM,48.9,44.1,83,29.67,-9999.0,ENE,6.9,-,N/A,,Unknown,60,2012-10-19 17:56:00
1:56 PM,48.9,43.0,80,29.66,-9999.0,ENE,6.9,-,N/A,,Unknown,70,2012-10-19 18:56:00
2:56 PM,48.0,42.1,80,29.67,-9999.0,ENE,9.2,-,N/A,,Unknown,70,2012-10-19 19:56:00
3:56 PM,52.0,44.1,74,29.67,-9999.0,Variable,3.5,-,N/A,,Unknown,0,2012-10-19 20:56:00
4:56 PM,48.9,44.1,83,29.69,-9999.0,ENE,5.8,-,0.08,,Unknown,70,2012-10-19 21:56:00
5:56 PM,48.0,45.0,89,29.70,-9999.0,Calm,Calm,-,0.10,,Unknown,0,2012-10-19 22:56:00
6:56 PM,48.0,44.1,86,29.72,-9999.0,NE,3.5,-,N/A,,Unknown,50,2012-10-19 23:56:00
7:56 PM,46.9,44.1,90,29.73,-9999.0,North,3.5,-,N/A,,Unknown,10,2012-10-20 00:56:00
8:56 PM,45.0,42.1,90,29.73,-9999.0,North,4.6,-,N/A,,Unknown,350,2012-10-20 01:56:00
9:56 PM,45.0,41.0,86,29.72,-9999.0,North,4.6,-,N/A,,Unknown,10,2012-10-20 02:56:00
10:56 PM,45.0,39.9,82,29.72,-9999.0,North,4.6,-,N/A,,Unknown,350,2012-10-20 03:56:00
11:56 PM,45.0,41.0,86,29.72,-9999.0,NNW,5.8,-,N/A,,Unknown,340,2012-10-20 04:56:00